Regional Weather Roundup
Issued by NWS

Home | Current Version | Previous Version | Text Only | Print | Product List | Glossary Off
Versions: 1 2 3 4 5 6 7 8 9 10 11 12 13 14 15 16 17 18 19 20 21 22 23 24 25 26 27 28 29 30 31 32 33 34 35 36 37 38 39 40 41 42 43 44 45 46 47 48 49 50

000
ASUS43 KLOT 230804
RWRIL

ILLINOIS REGIONAL WEATHER ROUNDUP
NATIONAL WEATHER SERVICE CHICAGO/ROMEOVILLE IL
300 AM CDT SAT SEP 23 2017

NOTE: "FAIR" INDICATES FEW OR NO CLOUDS BELOW 12,000 FEET WITH NO
SIGNIFICANT WEATHER AND/OR OBSTRUCTIONS TO VISIBILITY.

* THESE STATIONS ARE NOT UNDER NWS QUALITY CONTROL. THEY ALSO MAY NOT
  REPORT WEATHER SUCH AS PRECIPITATION OR FOG.

ILZ001-002-007-009-015-016-024-230900-
NORTHWEST ILLINOIS

CITY           SKY/WX    TMP DP  RH WIND       PRES   REMARKS
MOLINE         CLEAR     71  63  75 CALM      30.00S
STERLING*      CLEAR     68  65  90 CALM      30.02S
SAVANNA*       CLEAR     67  65  91 SE3       30.01F
$$

ILZ003-004-008-010-011-017-018-230900-
NORTH CENTRAL ILLINOIS

CITY           SKY/WX    TMP DP  RH WIND       PRES   REMARKS
ROCKFORD       CLEAR     70  64  81 CALM      30.03F
FREEPORT*      PTCLDY    70  64  79 S9        30.03F
ROCHELLE*      CLEAR     68  65  89 S3        30.04S
DE KALB*       CLEAR     69  65  87 S5        30.05S
PERU*          CLEAR     72  64  73 CALM      30.03F
$$

ILZ005-006-012>014-019>023-230900-
NORTHEAST ILLINOIS

CITY           SKY/WX    TMP DP  RH WIND       PRES   REMARKS
CHICAGO-OHARE  CLEAR     73  65  75 CALM      30.03S
CHICAGO-MIDWAY CLEAR     79  67  66 CALM      30.03F HX  81
AURORA         CLEAR     68  65  90 CALM      30.04F
LANSING*       CLEAR     69  68  96 CALM      30.04S
JOLIET*        CLEAR     69  68  96 CALM      30.03F
WAUKEGAN       CLEAR     73  68  84 SW6       30.02F HAZE
DUPAGE AIRPORT CLEAR     68  66  93 CALM      30.03F FOG
KANKAKEE*      CLEAR     67  66  97 CALM      30.05S
WHEELING       CLEAR     72  69  90 CALM      30.04S
MORRIS*        CLEAR     73  65  76 CALM      30.02F
ROMEOVILLE*    CLEAR     71  66  85 S3        30.04S
NORTHERLY ISL    N/A     80  64  58 SW3         N/A  HX  82
$$

LMZ740>746-230900-
SOUTHERN LAKE MICHIGAN

STATION/POSITION SKY/WX   TEMP    WIND        PRES    VSBY  WAVE
                          AIR SEA DIR/SP/G                  HT/PER
                          (F)     (DEG/KT/KT) (MB)    (MI)  (FT/S)
SOUTHERN BUOY              74 70  160/ 10/ 10 1016.7          0
WILMETTE HARBOR            75 72  190/  4/  6   N/A           1
HARRISON CRIB              82     200/ 11/ 12   N/A
BURNHAM HARBOR             80                   N/A
CALUMET HARBOR             78     220/  3/  5 1016.5F
BURNS HARBOR               76     180/  6/  7 1017.6F
MICHIGAN CITY              76     140/  7/  8   N/A
MICHIGAN CITY 6N           73 72  220/  2/  4   N/A           0
ST. JOSEPH                 74 72  180/  6/  6 1017.0F         0
$$

ILZ025>027-034>036-040-047-049-050-058-095>099-230900-
WEST-CENTRAL ILLINOIS

CITY           SKY/WX    TMP DP  RH WIND       PRES   REMARKS
QUINCY         CLEAR     72  62  71 S6        30.00F
MACOMB*        CLEAR     66  64  90 S6        30.03F
JACKSONVILLE*  CLEAR     67  62  85 CALM      30.02S
PITTSFIELD*    CLEAR     68  64  86 CALM      30.03S
$$

ILZ028>032-037-038-041>044-048-051>054-059>061-230900-
CENTRAL ILLINOIS

CITY           SKY/WX    TMP DP  RH WIND       PRES   REMARKS
PONTIAC        PTCLDY    71  70  98 SE5       30.04S
BLOOMINGTON    PTCLDY    72  66  81 S8        30.05F
DECATUR        PTCLDY    71  65  81 CALM      30.04S
PEORIA         CLEAR     75  65  70 S3        30.02F
LACON*         CLEAR     68  65  92 CALM      30.02S
LINCOLN*       CLEAR     70  66  88 CALM      30.03S
SPRINGFIELD    CLEAR     73  66  78 S3        30.03S
TAYLORVILLE    CLEAR     70  65  85 CALM      30.03F
$$

ILZ033-039-045-046-055>057-062-063-230900-
EAST-CENTRAL ILLINOIS

CITY           SKY/WX    TMP DP  RH WIND       PRES   REMARKS
CHAMPAIGN      PTCLDY    69  65  86 SE5       30.05S
RANTOUL*       CLEAR     72  68  88 CALM      30.05S
MATTOON        CLEAR     72  68  87 S5        30.03F
PARIS*         CLEAR     68  67  96 CALM      30.05F
$$

ILZ079-100>102-230900-
SOUTHWEST ILLINOIS

CITY           SKY/WX    TMP DP  RH WIND       PRES   REMARKS
ALTON          CLEAR     67  66  96 CALM      30.02S
CAHOKIA*       CLEAR     69  63  81 CALM      30.01S
SPARTA*        CLEAR     67  65  93 CALM      30.03S
$$

ILZ064>066-069>071-074>076-080>082-084>086-088>090-092>094-230900-
SOUTH-CENTRAL ILLINOIS

CITY           SKY/WX    TMP DP  RH WIND       PRES   REMARKS
CARBONDALE     CLEAR     65  65 100 CALM      30.02S FOG
CAIRO*         CLEAR     66  66 100 CALM      30.01S
EFFINGHAM*     PTCLDY    68  67  96 CALM      30.05S
MARION         CLEAR     68  66  94 CALM      30.03S
MT. VERNON       N/A     63  63 100 CALM      30.03S
CENTRALIA*     CLEAR     67  66  96 CALM      30.02F
SALEM*         CLEAR     69  65  89 CALM      30.03S
METROPOLIS*    CLEAR     66  65  97 CALM      30.01F FOG
$$

ILZ067-068-072-073-078-083-087-091-230900-
SOUTHEAST ILLINOIS

CITY           SKY/WX    TMP DP  RH WIND       PRES   REMARKS
LAWRENCEVILLE  CLEAR     69  68  96 NE3       30.04S
FLORA*         CLEAR     70  67  93 CALM      30.03F
FAIRFIELD*     CLEAR     65  63  94 CALM      30.02S
HARRISBURG*    CLEAR     65  64  97 CALM      30.02F
ROBINSON*      PTCLDY    65  65 100 CALM      30.05S FOG
CARMI*         CLEAR     64  64 100 CALM      30.02S FOG
$$

ABBREVIATIONS USED IN REMARKS
   TC - TEMPERATURE IN CELSIUS
  WCI - WIND CHILL INDEX
   HX - HEAT INDEX
  VSB - VISIBILITY
$$




USA.gov is the U.S. government's official web portal to all federal, state and local government web resources and services.